EW3721 Weather Reports


Display with metric or nautical units.
time (UTC)temp
F
wind
direction
speed
MPH
gust
MPH
rain 1hr
in
rain 24hr
in
rain mn
in
humidity
%
barometer
mb
20260503035106 49 248 1.0 3.0 0.00 0.03 0.03 55 1011.3
20260503033606 49 257 2.0 5.0 0.00 0.03 0.03 55 1011.3
20260503033106 49 0 1.0 3.0 0.00 0.03 0.03 54 1011.2
20260503032107 49 249 1.0 3.0 0.00 0.03 0.03 53 1011.2
20260503031606 49 252 1.0 3.0 0.00 0.03 0.03 54 1011.2
20260503031106 49 337 2.0 3.0 0.00 0.03 0.03 53 1011.1
20260503030606 49 143 2.0 6.0 0.00 0.03 0.03 54 1011.2
20260503030106 49 145 2.0 9.0 0.00 0.03 0.03 54 1011.2
20260503025607 49 249 2.0 3.0 0.00 0.03 0.03 54 1011.3
20260503024606 49 357 2.0 5.0 0.00 0.03 0.03 55 1011.2
20260503024107 49 161 3.0 7.0 0.00 0.03 0.03 54 1011.2
20260503023607 49 96 2.0 3.0 0.00 0.03 0.03 55 1011.3
20260503023106 49 130 1.0 3.0 0.00 0.03 0.03 56 1011.4
20260503022606 50 240 1.0 3.0 0.00 0.03 0.03 55 1011.4
20260503022107 50 237 2.0 5.0 0.00 0.03 0.03 56 1011.4
20260503021606 50 143 1.0 7.0 0.00 0.03 0.03 56 1011.5
20260503021106 50 240 1.0 7.0 0.00 0.03 0.03 55 1011.5
20260503020606 50 254 3.0 7.0 0.00 0.03 0.03 55 1011.4
20260503015606 50 131 3.0 12.0 0.00 0.03 0.03 57 1011.5
20260503015106 50 196 2.0 5.0 0.00 0.03 0.03 57 1011.4
20260503014606 50 136 2.0 5.0 0.00 0.03 0.03 59 1011.4
20260503013606 50 143 2.0 3.0 0.00 0.03 0.03 62 1011.3
20260503013106 50 78 1.0 3.0 0.00 0.03 0.03 64 1011.3
20260503012107 50 23 2.0 3.0 0.00 0.03 0.03 63 1011.2
20260503011106 51 3 1.0 3.0 0.00 0.03 0.03 67 1011.2
20260503010606 51 0 1.0 2.0 0.00 0.03 0.03 67 1011.3
20260503010106 52 1 1.0 5.0 0.00 0.03 0.03 66 1011.2
20260503005606 52 0 0.0 2.0 0.00 0.03 0.03 65 1011.1
20260503005107 52 358 1.0 2.0 0.00 0.03 0.03 62 1011.0
20260503004606 53 0 1.0 2.0 0.00 0.03 0.03 60 1010.9
20260503004107 53 0 1.0 2.0 0.00 0.03 0.03 57 1010.9
20260503003107 54 0 1.0 1.0 0.00 0.03 0.03 56 1010.8
20260503002106 54 0 1.0 2.0 0.00 0.03 0.03 55 1010.7
20260503001107 55 0 0.0 1.0 0.00 0.03 0.03 55 1010.6
20260503000606 55 359 1.0 3.0 0.00 0.03 0.03 54 1010.6
20260503000106 55 144 2.0 5.0 0.00 0.03 0.03 54 1010.5
20260502235606 56 142 1.0 3.0 0.00 0.03 0.03 54 1010.5
20260502234606 56 171 1.0 3.0 0.00 0.03 0.03 55 1010.4
20260502234106 56 140 2.0 3.0 0.00 0.03 0.03 52 1010.4
20260502233606 56 0 1.0 3.0 0.00 0.03 0.03 55 1010.3
20260502233106 57 33 3.0 3.0 0.00 0.03 0.03 54 1010.3
20260502231606 57 240 3.0 9.0 0.00 0.03 0.03 53 1010.3
20260502230606 58 224 3.0 6.0 0.00 0.03 0.03 53 1010.2
20260502230107 58 142 2.0 6.0 0.00 0.03 0.03 52 1010.1
20260502225606 58 229 3.0 5.0 0.00 0.03 0.03 51 1010.1
20260502224606 59 229 3.0 6.0 0.00 0.03 0.03 48 1010.1
20260502224107 59 246 3.0 7.0 0.00 0.03 0.03 46 1010.0
20260502223607 59 239 2.0 5.0 0.00 0.03 0.03 45 1009.9
20260502223106 59 142 2.0 8.0 0.00 0.03 0.03 48 1009.9
20260502222606 60 189 1.0 3.0 0.00 0.03 0.03 47 1009.8
20260502222107 60 141 2.0 3.0 0.00 0.03 0.03 45 1009.7
20260502221606 60 214 1.0 2.0 0.00 0.03 0.03 46 1009.8
20260502220606 59 224 1.0 3.0 0.00 0.03 0.03 47 1009.7
20260502215606 59 240 1.0 5.0 0.00 0.03 0.03 48 1009.8
20260502215106 59 161 2.0 3.0 0.00 0.03 0.03 49 1009.8
20260502214106 59 228 1.0 3.0 0.00 0.03 0.03 52 1009.8
20260502213606 59 227 1.0 1.0 0.00 0.03 0.03 56 1009.8
20260502213106 59 227 1.0 3.0 0.00 0.03 0.03 53 1009.8
20260502212606 59 225 2.0 3.0 0.00 0.03 0.03 49 1009.8
20260502212106 60 232 2.0 3.0 0.00 0.03 0.03 52 1009.8
20260502211606 60 250 1.0 3.0 0.00 0.03 0.03 51 1009.8
20260502211106 60 169 1.0 3.0 0.00 0.03 0.03 54 1009.8
20260502210106 60 225 1.0 3.0 0.00 0.03 0.03 55 1009.8
20260502205606 59 204 2.0 3.0 0.00 0.03 0.03 53 1009.8
20260502205106 59 168 1.0 3.0 0.00 0.03 0.03 55 1009.9
20260502204606 59 178 1.0 3.0 0.00 0.03 0.03 59 1009.9
20260502204106 58 204 2.0 6.0 0.00 0.03 0.03 55 1010.0
20260502203606 58 227 1.0 3.0 0.00 0.03 0.03 57 1010.0
20260502203106 58 221 3.0 5.0 0.00 0.03 0.03 58 1010.1
20260502202607 58 190 1.0 3.0 0.00 0.03 0.03 58 1010.2
20260502202106 58 236 2.0 3.0 0.00 0.03 0.03 61 1010.3
20260502201606 58 185 1.0 6.0 0.00 0.03 0.03 58 1010.4
20260502201106 58 247 1.0 6.0 0.00 0.03 0.03 60 1010.5
20260502200606 58 197 3.0 6.0 0.00 0.03 0.03 64 1010.4
20260502200106 57 139 2.0 3.0 0.00 0.03 0.03 63 1010.5
20260502195606 57 187 2.0 3.0 0.00 0.03 0.03 65 1010.5
20260502195106 57 164 4.0 8.0 0.00 0.03 0.03 62 1010.6
20260502194606 57 147 2.0 5.0 0.00 0.03 0.03 61 1010.7
20260502194106 57 170 2.0 5.0 0.00 0.03 0.03 63 1010.8
20260502193606 57 136 3.0 9.0 0.00 0.03 0.03 65 1010.8
20260502193106 57 197 4.0 12.0 0.00 0.03 0.03 62 1010.9
20260502192606 57 245 1.0 6.0 0.00 0.03 0.03 65 1011.0
20260502192106 57 225 2.0 6.0 0.00 0.03 0.03 65 1011.0
20260502191606 57 199 4.0 9.0 0.00 0.03 0.03 65 1011.1
20260502191106 57 154 2.0 3.0 0.00 0.03 0.03 66 1011.1
20260502190606 57 185 3.0 7.0 0.00 0.03 0.03 66 1011.2
20260502190106 57 121 3.0 10.0 0.00 0.03 0.03 66 1011.2
20260502185606 57 205 3.0 6.0 0.00 0.03 0.03 67 1011.3
20260502185105 57 238 2.0 8.0 0.00 0.03 0.03 67 1011.3
20260502184106 56 175 2.0 5.0 0.00 0.03 0.03 68 1011.4
20260502183606 56 233 3.0 10.0 0.00 0.03 0.03 69 1011.6
20260502183106 56 162 3.0 12.0 0.00 0.03 0.03 71 1011.5
20260502182606 56 218 3.0 10.0 0.00 0.03 0.03 71 1011.5
20260502182106 55 159 3.0 10.0 0.00 0.03 0.03 74 1011.6
20260502181606 54 209 3.0 8.0 0.00 0.03 0.03 75 1011.4
20260502180606 54 67 3.0 9.0 0.00 0.03 0.03 78 1011.4
20260502180106 54 235 4.0 8.0 0.00 0.03 0.03 78 1011.5
20260502170105 56 198 2.0 5.0 0.00 0.03 0.03 75 1011.2
20260502164105 56 170 1.0 3.0 0.00 0.03 0.03 76 1011.5
20260502163606 56 214 1.0 3.0 0.00 0.03 0.03 76 1011.5
20260502163106 56 193 2.0 3.0 0.00 0.03 0.03 75 1011.4
20260502162605 56 211 1.0 3.0 0.00 0.03 0.03 75 1011.6
20260502162106 56 192 2.0 3.0 0.00 0.03 0.03 76 1011.7
20260502161605 56 188 1.0 5.0 0.00 0.03 0.03 76 1011.7
20260502161106 56 183 1.0 6.0 0.00 0.03 0.03 75 1011.8
20260502160605 56 244 2.0 9.0 0.00 0.03 0.03 75 1011.6
20260502160106 56 184 3.0 15.0 0.00 0.03 0.03 76 1011.6
20260502152106 56 156 2.0 6.0 0.00 0.03 0.03 78 1011.8
20260502151606 56 190 2.0 6.0 0.00 0.03 0.03 77 1011.8
20260502151106 56 182 1.0 5.0 0.00 0.03 0.03 76 1011.9
20260502150605 56 184 3.0 5.0 0.00 0.03 0.03 76 1012.0
20260502150105 56 216 1.0 3.0 0.00 0.03 0.03 77 1012.0
20260502140106 54 222 1.0 2.0 0.00 0.03 0.03 84 1012.1
20260502130605 52 0 0.0 2.0 0.00 0.03 0.03 91 1012.1
20260502123606 51 243 0.0 2.0 0.01 0.03 0.03 95 1012.1
20260502123106 51 206 1.0 2.0 0.01 0.03 0.03 95 1012.1
20260502122605 51 206 1.0 2.0 0.01 0.03 0.03 95 1012.1
20260502122106 50 165 0.0 2.0 0.01 0.03 0.03 95 1012.2
20260502121606 50 240 0.0 3.0 0.01 0.03 0.03 95 1012.3
20260502121106 49 241 0.0 2.0 0.02 0.03 0.03 95 1012.3
20260502120606 49 245 1.0 2.0 0.02 0.03 0.03 95 1012.3
20260502120106 49 244 0.0 1.0 0.03 0.03 0.03 95 1012.0
20260502115605 49 244 1.0 2.0 0.02 0.02 0.02 95 1011.8
20260502115105 49 200 0.0 2.0 0.02 0.02 0.02 94 1011.5
20260502114106 48 197 0.0 1.0 0.02 0.02 0.02 94 1011.9
20260502113606 48 197 0.0 2.0 0.02 0.02 0.02 94 1011.9
20260502113106 48 197 0.0 1.0 0.02 0.02 0.02 94 1012.2
20260502112607 48 197 1.0 2.0 0.02 0.02 0.02 94 1012.3
20260502112107 48 136 1.0 3.0 0.02 0.02 0.02 94 1012.4
20260502111105 48 219 0.0 1.0 0.01 0.01 0.01 94 1012.6
20260502110605 48 219 0.0 0.0 0.01 0.01 0.01 94 1012.5
20260502110105 48 219 0.0 1.0 0.00 0.00 0.00 93 1012.6
20260502104605 48 219 0.0 2.0 0.00 0.00 0.00 93 1012.5
20260502103606 48 219 0.0 1.0 0.00 0.00 0.00 93 1012.2
20260502103106 48 219 1.0 2.0 0.00 0.00 0.00 93 1012.2
20260502102606 48 219 0.0 0.0 0.00 0.00 0.00 93 1012.1
20260502102105 48 219 0.0 0.0 0.00 0.00 0.00 93 1012.2
20260502101605 48 219 0.0 1.0 0.00 0.00 0.00 92 1012.2
20260502101105 48 219 1.0 1.0 0.00 0.00 0.00 92 1012.1
20260502100606 48 219 0.0 1.0 0.00 0.00 0.00 92 1011.9
20260502100105 48 219 0.0 1.0 0.00 0.00 0.00 92 1011.8
20260502091105 48 219 0.0 0.0 0.00 0.00 0.00 91 1011.6
20260502090605 48 219 0.0 2.0 0.00 0.00 0.00 90 1011.6
20260502090106 48 219 0.0 1.0 0.00 0.00 0.00 90 1011.5
20260502080107 49 219 0.0 0.0 0.00 0.00 0.00 89 1011.6
20260502071105 49 219 0.0 2.0 0.00 0.00 0.00 88 1011.9
20260502070605 49 219 0.0 0.0 0.00 0.00 0.00 88 1011.8
20260502070106 49 219 0.0 0.0 0.00 0.00 0.00 88 1011.8
20260502065606 49 219 0.0 0.0 0.00 0.00 0.00 87 1011.8
20260502065105 49 219 0.0 0.0 0.00 0.00 0.00 87 1011.7
20260502064605 49 219 0.0 0.0 0.00 0.00 0.00 87 1011.8
20260502064106 49 219 0.0 0.0 0.00 0.00 0.00 87 1011.8
20260502063606 49 219 0.0 0.0 0.00 0.00 0.00 87 1012.0
20260502063106 49 219 0.0 0.0 0.00 0.00 0.00 87 1011.9
20260502062105 49 219 0.0 0.0 0.00 0.00 0.00 87 1011.7
20260502061106 49 219 0.0 0.0 0.00 0.00 0.00 86 1011.8
20260502060605 49 219 0.0 0.0 0.00 0.00 0.00 86 1011.9
20260502060105 49 219 0.0 0.0 0.00 0.00 0.00 86 1011.9
20260502055605 49 219 0.0 0.0 0.00 0.00 0.00 86 1011.9
20260502055105 49 219 0.0 0.0 0.00 0.00 0.00 85 1012.1
20260502054606 49 219 0.0 1.0 0.00 0.00 0.00 85 1012.0
20260502054105 49 219 0.0 1.0 0.00 0.00 0.00 84 1012.1
20260502053105 49 219 0.0 0.0 0.00 0.00 0.00 84 1012.0
20260502052605 49 219 0.0 0.0 0.00 0.00 0.00 84 1012.2
20260502052105 49 219 0.0 0.0 0.00 0.00 0.00 83 1012.1
20260502051605 49 219 0.0 0.0 0.00 0.00 0.00 83 1012.2
20260502051105 49 219 0.0 0.0 0.00 0.00 0.00 83 1012.3
20260502045605 49 219 0.0 0.0 0.00 0.00 0.00 81 1012.3
20260502045105 49 219 0.0 0.0 0.00 0.00 0.00 81 1012.3
20260502044105 50 219 0.0 0.0 0.00 0.00 0.00 81 1012.4
20260502043105 50 219 0.0 0.0 0.00 0.00 0.00 80 1012.3
20260502042605 50 219 0.0 1.0 0.00 0.00 0.00 80 1012.4
20260502041605 50 219 0.0 0.0 0.00 0.00 0.00 79 1012.2
20260502040605 51 219 0.0 0.0 0.00 0.00 0.00 77 1012.4
20260502040105 51 219 0.0 0.0 0.00 0.00 0.00 78 1012.4
20260502035605 51 219 0.0 0.0 0.00 0.00 0.00 77 1012.3